Location: Auckland
(36.8670°S, 174.7670°E)
Time: 17:20:15
(UTC+13:00)

NOAA 11 - Pass Details

Date: 24 January 2019
Orbit: 832 x 850 km, 98.4° (Epoch: 23 October)

Event Time Altitude Azimuth Distance (km) Brightness Sun altitude
Rises 21:29:41 0° 163° (SSE) 3,447 7.6 -9.8°
Reaches altitude 10° 21:32:07 10° 158° (SSE) 2,506 6.8 -10.2°
Maximum altitude 21:37:36 57° 80° (E) 1,002 4.3 -11.1°
Drops below altitude 10° 21:43:01 10° 1° (N) 2,476 6.3 -12.0°
Sets 21:45:25 0° 357° (N) 3,403 7.0 -12.4°
